Change the Weather History Date:

Friday, October 19, 2012

  Actual Average Record
Temperature  
Mean Temperature 45 °F -  
Max Temperature 48 °F 49 °F 59 °F (2006)
Min Temperature 42 °F 42 °F 33 °F (2002)
Degree Days  
Heating Degree Days 20    
Moisture  
Dew Point 41 °F    
Average Humidity 82    
Maximum Humidity 87    
Minimum Humidity 76    
Precipitation  
Precipitation 0.00 in - - ()
Sea Level Pressure  
Sea Level Pressure 29.77 in    
Wind  
Wind Speed 10 mph ()    
Max Wind Speed 14 mph    
Max Gust Speed -    
Visibility 6.2 miles    
Events Rain    
Averages and records for this station are not official NWS values.
T = Trace of Precipitation, MM = Missing Value Source: Averaged Metar Reports

Daily Weather History Graph

Daily Weather History Graph

Search for Another Location

Airport or City:

Trip Planner

Search our weather history database for the weather conditions in past years. The results will help you decide how hot, cold, wet, or windy it might be!

Date:

Astronomy

Oct. 19, 2012 Rise Set
Actual Time 7:53 AM BST 5:59 PM BST
Civil Twilight 7:14 AM BST 6:38 PM BST
Nautical Twilight 6:31 AM BST 7:21 PM BST
Astronomical Twilight 5:47 AM BST 8:05 PM BST
Moon 1:05 PM BST (10/19) 8:40 PM BST (10/19)
Length of Visible Light 11h 23m
Length of Day
10h 06m
Waxing Crescent, 21% of the Moon is Illuminated
Oct 19
Waxing Crescent
Oct 22
First Quarter
Oct 29
Full
Nov 7
Last Quarter
Nov 13
New

Hourly Weather History & Observations

Time (BST) Temp. Windchill Dew Point Humidity Pressure Visibility Wind Dir Wind Speed Gust Speed Precip Events Conditions
7:50 AM 44.6 °F 38.1 °F 39.2 °F 81% 29.74 in 6.2 mi NE 13.8 mph - N/A   Mostly Cloudy
8:20 AM 42.8 °F 35.8 °F 39.2 °F 87% 29.74 in 6.2 mi NNE 13.8 mph - N/A   Mostly Cloudy
8:50 AM 44.6 °F 38.4 °F 39.2 °F 81% 29.74 in 6.2 mi NNE 12.7 mph - N/A   Scattered Clouds
9:20 AM 44.6 °F 38.1 °F 39.2 °F 81% 29.74 in 6.2 mi NE 13.8 mph - N/A   Scattered Clouds
9:50 AM 44.6 °F 38.8 °F 39.2 °F 81% 29.77 in 6.2 mi NE 11.5 mph - N/A   Scattered Clouds
10:20 AM 46.4 °F 41.1 °F 39.2 °F 76% 29.77 in 6.2 mi NE 11.5 mph - N/A   Mostly Cloudy
10:50 AM 46.4 °F 41.1 °F 41.0 °F 81% 29.77 in 6.2 mi NE 11.5 mph - N/A   Mostly Cloudy
11:20 AM 46.4 °F 41.1 °F 41.0 °F 81% 29.77 in 6.2 mi NE 11.5 mph - N/A   Mostly Cloudy
11:50 AM 46.4 °F 42.4 °F 41.0 °F 81% 29.77 in 6.2 mi ENE 8.1 mph - N/A   Mostly Cloudy
12:20 PM 46.4 °F 41.5 °F 41.0 °F 81% 29.77 in 6.2 mi ENE 10.4 mph - N/A   Mostly Cloudy
12:50 PM 48.2 °F - 41.0 °F 76% 29.77 in 6.2 mi ENE 10.4 mph - N/A   Mostly Cloudy
1:20 PM 48.2 °F - 41.0 °F 76% 29.77 in 6.2 mi ENE 9.2 mph - N/A   Mostly Cloudy
1:50 PM 48.2 °F - 41.0 °F 76% 29.77 in 6.2 mi ENE 9.2 mph - N/A   Mostly Cloudy
2:20 PM 48.2 °F - 41.0 °F 76% 29.77 in 6.2 mi ENE 8.1 mph - N/A   Mostly Cloudy
2:50 PM 48.2 °F - 42.8 °F 82% 29.77 in 6.2 mi ENE 10.4 mph - N/A   Mostly Cloudy
3:20 PM 48.2 °F - 41.0 °F 76% 29.77 in 6.2 mi ENE 10.4 mph - N/A   Mostly Cloudy
4:20 PM 46.4 °F 41.9 °F 41.0 °F 81% 29.77 in 6.2 mi ENE 9.2 mph - N/A   Mostly Cloudy
4:50 PM 46.4 °F 41.5 °F 41.0 °F 81% 29.77 in 6.2 mi ENE 10.4 mph - N/A   Mostly Cloudy
5:50 PM 46.4 °F 42.4 °F 41.0 °F 81% 29.77 in 6.2 mi NE 8.1 mph - N/A   Mostly Cloudy
6:20 PM 46.4 °F 42.4 °F 42.8 °F 87% 29.77 in 6.2 mi NE 8.1 mph - N/A   Mostly Cloudy
6:50 PM 46.4 °F 43.5 °F 42.8 °F 87% 29.80 in 6.2 mi NE 5.8 mph - N/A   Mostly Cloudy
7:20 PM 46.4 °F 43.5 °F 42.8 °F 87% 29.80 in 6.2 mi NE 5.8 mph - N/A   Mostly Cloudy
8:20 PM 46.4 °F 42.4 °F 42.8 °F 87% 29.80 in 6.2 mi NE 8.1 mph - N/A   Mostly Cloudy
8:50 PM 46.4 °F 42.4 °F 42.8 °F 87% 29.80 in 6.2 mi NE 8.1 mph - N/A   Light Drizzle
9:20 PM 48.2 °F - 44.6 °F 87% 29.77 in 6.2 mi NE 8.1 mph - N/A   Light Drizzle
9:50 PM 46.4 °F 44.3 °F 42.8 °F 87% 29.77 in 6.2 mi ENE 4.6 mph - N/A   Scattered Clouds
10:20 PM 46.4 °F 43.5 °F 42.8 °F 87% 29.77 in 6.2 mi ENE 5.8 mph - N/A Rain Light Rain